SCP
0 0 0 0 0 0 0 0 0 0 0 0 0 0 0 0 0 0 0 0 0 0 0 0 0 0 0 0 0 0 0 0 0 0 0 0 0 0 0 0 0 0 0
0 0 0 0 0 0 0 0 0 0 0 0 0 0 0 0 0 0 0 0 0 0 0 0 0 0 0 0 0 0 0 0 0 0 0 0 0 0 0 0 0 0 0
0 0 0 0 0 0 0 0 0 0 0 0 0 0 0 0 0 0 0 0 0 0 0 0 0 0 0 0 0 0 0 0 0 0 0 0 0 0 0 0 0 0 0
0 0 0 0 0 0 0 0 0 0 0 0 0 0 0 0 0 0 0 0 0 0 0 0 0 0 0 0 0 0 0 0 0 0 0 0 0 0 0 -0 0 0 0
0 0 0 0 0 0 0 0 0 0 0 0 0 0 0 0 0 0 0 0 0 0 0 0 0 0 0 0 0 0 0 0 0 0 0 0 0 0 0 0 0 0 0
0 0 0 0 0 0 0 0 0 0 0 0 0 0 0 0 0 0 0 0 0 0 0 0 0 0 0 0 0 0 0 0 0 0 0 0 0 0 0 0 0 0 0
0 0 0 0 0 0 0 0 0 0 0 0 0 0 0 0 0 0 0 0 0 0 0 0 0 0 0 0 0 0 0 0 0 0 0 0 0 0 0 0 0 0 0
0 0 0 0 0 0 0 0 0 0 0 0 0 0 0 0 0 0 0 0 0 0 0 0 0 0 0 0 0 0 0 0 0 0 0 0 0 0 0 0 0 0 0
0 0 0 0 0 0 0 0 0 0 0 0 0 0 0 0 0 0 0 0 0 0 0 0 0 0 0 0 0 0 0 0 0 0 0 0 0 0 0 0 0 0 0
0 0 0 0 0 0 0 0 0 0 0 0 0 0 0 0 0 0 0 0 0 0 0 0 0 0 0 0 0 0 0 0 0 0 0 0 0 0 0 0 0 0 0
0 0 0 0 0 0 0 0 0 0 0 0 0 0 0 0 0 0 0 0 0 0 0 0 0 0 0 0 0 0 0 0 0 0 0 0 0 0 0 0 0 0 0
0 0 0 0 0 0 0 0 0 0 0 0 0 0 0 0 0 0 0 0 0 0 0 0 0 0 0 -0 0 -0 0 0 0 0 0 0 0 0 0 0 0 0 0
0 0 0 0 0 0 0 0 0 0 0 0 0 0 0 0 0 0 0 0 0 0 0 0 0 0 0 0 0 0 0 -0 0 -0 -0 -0 -0 0 0 0 0 0 0
0 0 0 0 0 0 0 0 0 0 0 0 0 0 0 0 0 0 0 0 0 0 0 0 0 0 0 0 0 0 0 -0 -0 0 0 -0 -0 -0 -0 -0 -0 -0 -0
0 0 0 0 0 0 0 0 0 0 0 0 0 0 0 0 0 0 0 0 0 0 0 0 0 0 0 0 0 0 0 0 0 -0 0 -0 -0 0 0 0 -0 -0 -0
0 0 0 0 0 0 0 0 0 0 0 0 0 0 0 0 0 0 0 0 0 0 0 0 0 0 0 0 0 0 0 0 0 -0 -0 0 0 0 0 -0 -0 0 0
0 0 0 0 0 0 0 0 0 0 0 0 0 0 0 0 0 0 0 0 0 0 0 0 0 0 0 0 0 0 0 0 0 0 0 0 -0 -0 -0 -0 0 -0 -0
0 0 0 0 0 0 0 0 0 0 0 0 0 0 0 0 0 0 0 0 0 0 0 0 0 0 0 0 0 0 0 0 0 0 0 -0 0 -0 -0 -0 0 0 -0
0 0 0 0 0 0 0 0 0 0 0 0 0 0 0 0 0 0 0 0 0 0 0 0 0 -0 -0 -0 0 0 0 0 0 0 0 -0 0 -0 -0 -0 -0 -0 -0
0 0 0 0 0 0 0 0 0 0 0 0 0 0 0 0 0 0 0 0 0 0 0 0 0 0 0 -0 -0 0 0 0 0 0 -0 -0 -0 -0 -0 -0 -0 -0 -0
-0 0 0 0 0 0 0 0 0 0 0 0 0 0 0 0 0 0 0 0 0 0 0 0 0 0 0 0 0 0 0 0 -0 -0 -0 0 -0 -0 -0 -0 -0 -0 -0
-0 0 0 0 0 0 0 0 0 0 0 0 0 0 0 0 0 0 0 0 0 0 0 0 0 0 0 0 0 0 0 0 0 0 -0 0 -0 -0 -0 0 -0 -0 -0
-0 0 0 0 0 0 0 0 0 0 0 0 0 0 0 0 0 0 0 0 0 0 0 0 0 0 0 0 0 0 0 0 -0 -0 0 -0 -0 -0 -0 -0 -0 -0 0
-0 -0 0 0 0 0 0 0 0 0 0 0 0 0 0 0 0 0 0 0 0 0 0 0 0 0 0 0 0 0 0 0 0 0 0 0 -0 -0 -0 0 0 0 0
-0 -0 0 0 0 0 0 0 0 0 0 0 0 0 0 0 0 0 0 0 0 0 0 0 0 0 0 0 0 0 0 0 0 0 0 0 0 0 0 0 0 0 0
-0 -0 -0 0 0 -0 0 0 0 0 0 0 0 0 0 0 0 0 0 0 0 0 0 0 0 0 0 0 0 0 0 0 0 0 0 0 0 0 0 0 0 0 -0
Wind_Speed_500mb
68 71 77 81 82 87 83 92 89 85 86 84 81 78 79 81 81 74 71 73 76 69 69 75 66 51 58 62 54 56 56 55 53 48 52 56 58 54 49 47 43 46 36
75 77 81 85 89 96 93 79 93 83 83 79 81 73 76 80 81 82 80 79 76 72 69 64 67 70 64 59 65 62 62 57 54 55 46 46 49 50 55 51 48 47 45
77 83 89 95 95 95 97 91 85 90 74 83 75 84 89 77 82 77 73 73 71 68 68 72 69 65 56 58 55 57 56 59 58 52 53 31 42 42 44 41 37 39 44
80 85 94 92 103 105 85 98 90 83 82 74 77 90 84 84 78 81 77 77 73 76 78 81 78 79 73 67 61 57 65 65 64 58 57 61 57 49 53 59 49 41 45
81 92 85 105 99 84 110 87 97 94 96 93 91 88 88 84 83 80 77 74 79 77 79 77 78 76 72 66 64 64 64 63 64 68 65 60 54 57 56 50 48 44 40
92 85 105 101 91 106 94 106 102 103 97 92 86 82 80 77 76 75 77 76 73 72 75 76 75 74 70 69 71 69 67 62 63 60 59 58 52 51 54 56 55 50 39
84 103 101 101 105 107 111 116 109 104 93 82 81 78 77 76 76 69 63 68 71 70 68 61 64 68 70 72 68 71 69 60 63 66 65 61 57 56 58 55 52 48 46
101 88 99 105 112 112 107 112 110 106 99 87 80 77 74 78 78 75 70 62 63 69 71 65 63 60 61 62 64 56 57 69 68 56 61 61 62 61 55 54 50 51 50
88 103 102 101 113 100 109 110 106 104 98 92 87 83 82 82 82 74 70 68 59 55 58 59 63 65 52 53 55 56 55 54 52 47 64 60 51 59 59 52 46 49 49
96 104 96 104 106 104 112 105 98 100 99 95 92 91 89 84 71 67 74 74 60 45 44 47 48 49 52 59 54 57 61 54 59 61 50 45 57 65 65 68 55 48 45
100 96 102 105 103 114 114 108 109 109 108 104 101 96 87 76 68 68 75 78 66 42 27 34 34 37 44 50 40 47 51 56 55 54 65 64 54 44 55 56 56 54 49
96 96 103 102 109 116 116 113 110 112 109 101 94 94 87 81 73 67 70 75 42 16 10 20 23 27 29 36 41 44 50 55 61 51 50 54 60 66 50 50 47 46 50
97 98 106 102 109 112 114 110 105 109 107 103 99 97 91 90 79 69 63 63 50 21 8 10 15 17 20 22 33 35 38 43 40 42 47 51 47 48 56 50 49 54 49
91 95 103 105 110 109 110 104 101 105 105 105 107 102 98 95 83 75 70 60 46 29 12 3 8 11 12 15 15 23 31 33 37 38 40 42 46 44 47 46 48 45 47
93 98 105 108 108 109 110 101 98 98 97 101 104 106 96 91 87 87 88 79 49 34 26 9 1 7 7 8 10 14 12 17 32 32 33 34 40 41 42 37 41 49 53
93 93 105 107 105 105 104 102 100 93 87 93 99 100 97 92 97 99 92 80 69 69 43 27 11 4 8 9 10 13 11 10 10 21 19 24 30 34 39 41 45 50 56
92 89 101 103 99 99 100 97 94 86 79 91 92 94 95 93 88 90 94 92 83 81 74 54 22 19 12 9 13 19 33 19 13 16 21 25 30 32 32 38 44 47 44
86 94 95 97 95 94 96 92 89 83 79 86 88 83 85 84 90 82 88 96 95 89 88 83 54 43 53 10 6 11 16 19 25 18 18 24 24 22 26 32 33 29 25
76 91 87 89 86 90 96 88 87 80 78 82 88 78 77 74 78 81 83 82 92 98 97 94 88 71 58 29 11 8 3 6 7 12 10 10 11 20 23 24 21 33 46
86 85 83 83 81 89 92 86 84 82 81 74 83 77 72 68 63 69 74 73 82 88 93 98 104 96 89 70 56 53 65 65 61 41 52 44 35 43 40 48 68 78 72
84 87 76 85 78 85 89 86 81 82 76 62 69 82 73 69 59 57 66 64 70 75 84 97 96 90 92 90 84 84 94 99 98 89 80 70 67 65 67 71 75 78 73
82 90 77 81 75 82 88 83 79 76 70 63 60 67 81 72 74 70 70 67 68 75 81 81 81 88 89 84 83 86 90 95 99 90 80 73 70 69 68 67 64 67 73
80 85 72 77 72 78 85 80 75 74 68 66 58 58 61 80 77 81 82 83 82 82 81 84 85 79 71 67 70 74 76 79 87 82 74 71 69 67 64 61 63 72 75
75 81 68 76 75 74 81 73 69 72 67 61 59 57 60 59 77 80 82 84 85 84 82 78 80 77 80 73 71 70 68 67 73 71 71 68 70 70 71 74 69 65 65
79 68 64 72 71 67 78 70 68 72 66 58 54 55 58 57 54 67 75 76 73 73 76 73 75 73 72 66 64 66 66 66 66 76 78 78 79 80 76 71 68 66 66
81 65 57 66 68 63 72 69 63 68 66 57 56 52 54 54 54 53 60 73 73 73 72 68 62 58 58 61 65 65 66 67 68 78 82 81 78 75 72 70 66 63 59
Wind_Direction_500mb
346 342 342 340 338 334 330 327 326 323 318 318 312 308 302 298 295 291 290 283 279 276 272 270 268 270 264 260 261 262 267 263 262 263 261 268 275 276 271 273 267 275 273
345 344 343 340 337 332 330 330 325 324 321 316 312 309 305 299 294 291 287 283 280 280 272 273 276 274 266 262 259 257 258 262 256 258 269 267 270 268 266 264 257 258 261
344 343 341 336 337 336 332 330 329 325 323 318 310 304 309 292 291 289 287 283 278 272 271 268 268 266 265 260 256 250 251 258 256 252 249 260 251 263 268 260 255 251 257
344 341 339 338 336 336 337 332 332 326 326 324 314 313 316 309 300 299 289 282 278 274 269 267 266 266 267 265 262 261 256 252 253 248 247 249 260 269 274 271 279 273 270
344 339 341 336 338 340 335 333 337 334 332 327 326 322 318 313 307 300 293 283 277 274 265 263 263 259 259 259 257 255 253 249 249 244 247 248 251 257 263 265 270 262 264
342 343 338 342 342 337 340 339 338 337 335 331 329 325 319 314 310 304 298 287 279 273 270 267 262 260 256 256 254 253 251 247 247 247 244 241 241 248 254 257 262 267 264
345 339 345 345 341 341 341 342 341 340 341 338 336 335 332 329 324 318 303 292 284 275 270 262 260 258 254 252 252 251 249 248 249 249 246 246 244 250 251 258 263 273 274
342 347 347 345 342 344 340 341 344 345 349 348 344 342 340 338 332 328 321 306 283 273 265 264 255 250 251 249 248 247 246 249 246 248 244 246 246 244 248 254 255 263 266
345 348 346 346 345 342 343 346 351 356 356 354 351 350 349 345 337 333 328 319 308 282 268 262 256 252 242 242 245 244 249 244 240 249 249 244 245 244 246 250 254 254 261
350 347 348 346 346 346 351 357 1 1 1 359 357 354 351 344 341 338 329 326 317 293 266 257 252 246 244 252 247 246 245 245 249 252 240 246 248 246 244 246 248 254 257
347 347 347 346 348 354 356 360 2 2 360 359 358 355 354 353 355 359 357 344 323 302 268 252 252 248 245 244 245 241 247 244 244 245 249 247 242 241 244 242 246 251 255
347 348 347 348 351 355 357 0 5 3 1 358 1 2 2 2 3 6 14 3 4 347 280 244 244 243 242 245 242 246 245 247 253 247 244 241 250 239 243 247 241 247 253
348 348 349 350 352 354 358 4 9 7 1 5 7 6 7 7 9 13 18 22 13 28 359 250 232 235 237 241 241 251 255 248 243 245 246 244 244 247 243 245 248 247 257
347 347 350 350 355 355 358 4 8 9 2 7 8 10 12 13 17 20 24 26 24 11 18 310 231 212 236 262 258 250 241 237 236 245 243 244 238 250 249 243 250 254 257
349 350 349 348 354 359 359 4 7 6 6 9 7 10 15 20 26 30 30 37 36 42 36 48 312 228 250 273 266 272 237 255 243 237 238 245 248 240 238 250 254 253 257
347 348 347 350 356 359 355 1 1 5 1 8 7 11 20 25 30 31 36 46 54 42 37 44 38 277 261 276 269 268 223 244 250 236 239 245 241 245 249 258 261 262 261
347 348 345 350 357 0 357 356 359 2 359 3 8 12 16 24 32 36 42 46 50 53 48 46 35 40 7 282 252 278 258 239 187 200 210 227 233 238 243 251 259 265 261
347 347 345 354 360 1 358 356 2 3 2 3 8 16 15 25 27 35 46 46 49 52 52 43 51 52 42 23 339 280 266 284 272 258 234 240 245 237 240 253 253 251 252
346 346 348 358 4 3 360 3 4 4 7 8 11 17 22 27 29 21 33 48 52 54 56 54 47 44 38 20 26 299 322 192 222 290 333 277 200 174 215 208 160 107 81
345 347 352 5 8 5 4 5 9 13 7 14 14 20 27 26 35 37 26 31 48 54 58 57 57 55 52 55 64 81 93 93 88 83 84 77 107 118 132 124 108 106 107
350 349 359 6 10 6 7 7 13 21 7 18 15 21 28 33 38 44 44 44 38 48 49 53 58 56 53 55 61 70 77 78 79 77 76 80 85 88 93 100 103 103 108
353 353 1 7 12 9 9 7 15 19 7 17 24 21 23 38 46 49 53 52 54 51 52 55 51 53 57 55 59 65 72 77 78 77 76 76 76 79 82 84 89 92 94
351 355 2 8 13 10 11 8 15 20 10 19 28 31 25 30 46 51 53 57 56 56 54 54 54 56 59 60 61 64 66 68 72 75 77 78 78 78 78 79 83 86 87
352 357 4 10 11 10 11 13 19 22 12 25 30 36 36 27 33 47 51 52 55 58 54 52 55 55 56 61 67 68 70 71 74 75 76 77 78 77 78 77 78 83 88
351 5 7 9 11 9 11 15 23 23 16 27 32 41 42 41 36 36 45 53 52 53 54 56 54 55 56 57 62 65 68 70 76 84 82 79 79 79 78 78 79 80 81
355 8 10 8 13 11 13 14 24 26 14 27 34 40 47 47 50 51 49 52 54 55 57 55 58 62 62 63 65 68 71 77 81 79 72 69 69 72 75 76 76 77 79
Wind_Speed_850mb
68 71 77 81 82 87 83 92 89 85 86 84 81 78 79 81 81 74 71 73 76 69 69 75 66 51 58 62 54 56 56 55 53 48 52 56 58 54 49 47 43 46 36
75 77 81 85 89 96 93 79 93 83 83 79 81 73 76 80 81 82 80 79 76 72 69 64 67 70 64 59 65 62 62 57 54 55 46 46 49 50 55 51 48 47 45
77 83 89 95 95 95 97 91 85 90 74 83 75 84 89 77 82 77 73 73 71 68 68 72 69 65 56 58 55 57 56 59 58 52 53 31 42 42 44 41 37 39 44
80 85 94 92 103 105 85 98 90 83 82 74 77 90 84 84 78 81 77 77 73 76 78 81 78 79 73 67 61 57 65 65 64 58 57 61 57 49 53 59 49 41 45
81 92 85 105 99 84 110 87 97 94 96 93 91 88 88 84 83 80 77 74 79 77 79 77 78 76 72 66 64 64 64 63 64 68 65 60 54 57 56 50 48 44 40
92 85 105 101 91 106 94 106 102 103 97 92 86 82 80 77 76 75 77 76 73 72 75 76 75 74 70 69 71 69 67 62 63 60 59 58 52 51 54 56 55 50 39
84 103 101 101 105 107 111 116 109 104 93 82 81 78 77 76 76 69 63 68 71 70 68 61 64 68 70 72 68 71 69 60 63 66 65 61 57 56 58 55 52 48 46
101 88 99 105 112 112 107 112 110 106 99 87 80 77 74 78 78 75 70 62 63 69 71 65 63 60 61 62 64 56 57 69 68 56 61 61 62 61 55 54 50 51 50
88 103 102 101 113 100 109 110 106 104 98 92 87 83 82 82 82 74 70 68 59 55 58 59 63 65 52 53 55 56 55 54 52 47 64 60 51 59 59 52 46 49 49
96 104 96 104 106 104 112 105 98 100 99 95 92 91 89 84 71 67 74 74 60 45 44 47 48 49 52 59 54 57 61 54 59 61 50 45 57 65 65 68 55 48 45
100 96 102 105 103 114 114 108 109 109 108 104 101 96 87 76 68 68 75 78 66 42 27 34 34 37 44 50 40 47 51 56 55 54 65 64 54 44 55 56 56 54 49
96 96 103 102 109 116 116 113 110 112 109 101 94 94 87 81 73 67 70 75 42 16 10 20 23 27 29 36 41 44 50 55 61 51 50 54 60 66 50 50 47 46 50
97 98 106 102 109 112 114 110 105 109 107 103 99 97 91 90 79 69 63 63 50 21 8 10 15 17 20 22 33 35 38 43 40 42 47 51 47 48 56 50 49 54 49
91 95 103 105 110 109 110 104 101 105 105 105 107 102 98 95 83 75 70 60 46 29 12 3 8 11 12 15 15 23 31 33 37 38 40 42 46 44 47 46 48 45 47
93 98 105 108 108 109 110 101 98 98 97 101 104 106 96 91 87 87 88 79 49 34 26 9 1 7 7 8 10 14 12 17 32 32 33 34 40 41 42 37 41 49 53
93 93 105 107 105 105 104 102 100 93 87 93 99 100 97 92 97 99 92 80 69 69 43 27 11 4 8 9 10 13 11 10 10 21 19 24 30 34 39 41 45 50 56
92 89 101 103 99 99 100 97 94 86 79 91 92 94 95 93 88 90 94 92 83 81 74 54 22 19 12 9 13 19 33 19 13 16 21 25 30 32 32 38 44 47 44
86 94 95 97 95 94 96 92 89 83 79 86 88 83 85 84 90 82 88 96 95 89 88 83 54 43 53 10 6 11 16 19 25 18 18 24 24 22 26 32 33 29 25
76 91 87 89 86 90 96 88 87 80 78 82 88 78 77 74 78 81 83 82 92 98 97 94 88 71 58 29 11 8 3 6 7 12 10 10 11 20 23 24 21 33 46
86 85 83 83 81 89 92 86 84 82 81 74 83 77 72 68 63 69 74 73 82 88 93 98 104 96 89 70 56 53 65 65 61 41 52 44 35 43 40 48 68 78 72
84 87 76 85 78 85 89 86 81 82 76 62 69 82 73 69 59 57 66 64 70 75 84 97 96 90 92 90 84 84 94 99 98 89 80 70 67 65 67 71 75 78 73
82 90 77 81 75 82 88 83 79 76 70 63 60 67 81 72 74 70 70 67 68 75 81 81 81 88 89 84 83 86 90 95 99 90 80 73 70 69 68 67 64 67 73
80 85 72 77 72 78 85 80 75 74 68 66 58 58 61 80 77 81 82 83 82 82 81 84 85 79 71 67 70 74 76 79 87 82 74 71 69 67 64 61 63 72 75
75 81 68 76 75 74 81 73 69 72 67 61 59 57 60 59 77 80 82 84 85 84 82 78 80 77 80 73 71 70 68 67 73 71 71 68 70 70 71 74 69 65 65
79 68 64 72 71 67 78 70 68 72 66 58 54 55 58 57 54 67 75 76 73 73 76 73 75 73 72 66 64 66 66 66 66 76 78 78 79 80 76 71 68 66 66
81 65 57 66 68 63 72 69 63 68 66 57 56 52 54 54 54 53 60 73 73 73 72 68 62 58 58 61 65 65 66 67 68 78 82 81 78 75 72 70 66 63 59
Wind_Direction_850mb
346 342 342 340 338 334 330 327 326 323 318 318 312 308 302 298 295 291 290 283 279 276 272 270 268 270 264 260 261 262 267 263 262 263 261 268 275 276 271 273 267 275 273
345 344 343 340 337 332 330 330 325 324 321 316 312 309 305 299 294 291 287 283 280 280 272 273 276 274 266 262 259 257 258 262 256 258 269 267 270 268 266 264 257 258 261
344 343 341 336 337 336 332 330 329 325 323 318 310 304 309 292 291 289 287 283 278 272 271 268 268 266 265 260 256 250 251 258 256 252 249 260 251 263 268 260 255 251 257
344 341 339 338 336 336 337 332 332 326 326 324 314 313 316 309 300 299 289 282 278 274 269 267 266 266 267 265 262 261 256 252 253 248 247 249 260 269 274 271 279 273 270
344 339 341 336 338 340 335 333 337 334 332 327 326 322 318 313 307 300 293 283 277 274 265 263 263 259 259 259 257 255 253 249 249 244 247 248 251 257 263 265 270 262 264
342 343 338 342 342 337 340 339 338 337 335 331 329 325 319 314 310 304 298 287 279 273 270 267 262 260 256 256 254 253 251 247 247 247 244 241 241 248 254 257 262 267 264
345 339 345 345 341 341 341 342 341 340 341 338 336 335 332 329 324 318 303 292 284 275 270 262 260 258 254 252 252 251 249 248 249 249 246 246 244 250 251 258 263 273 274
342 347 347 345 342 344 340 341 344 345 349 348 344 342 340 338 332 328 321 306 283 273 265 264 255 250 251 249 248 247 246 249 246 248 244 246 246 244 248 254 255 263 266
345 348 346 346 345 342 343 346 351 356 356 354 351 350 349 345 337 333 328 319 308 282 268 262 256 252 242 242 245 244 249 244 240 249 249 244 245 244 246 250 254 254 261
350 347 348 346 346 346 351 357 1 1 1 359 357 354 351 344 341 338 329 326 317 293 266 257 252 246 244 252 247 246 245 245 249 252 240 246 248 246 244 246 248 254 257
347 347 347 346 348 354 356 360 2 2 360 359 358 355 354 353 355 359 357 344 323 302 268 252 252 248 245 244 245 241 247 244 244 245 249 247 242 241 244 242 246 251 255
347 348 347 348 351 355 357 0 5 3 1 358 1 2 2 2 3 6 14 3 4 347 280 244 244 243 242 245 242 246 245 247 253 247 244 241 250 239 243 247 241 247 253
348 348 349 350 352 354 358 4 9 7 1 5 7 6 7 7 9 13 18 22 13 28 359 250 232 235 237 241 241 251 255 248 243 245 246 244 244 247 243 245 248 247 257
347 347 350 350 355 355 358 4 8 9 2 7 8 10 12 13 17 20 24 26 24 11 18 310 231 212 236 262 258 250 241 237 236 245 243 244 238 250 249 243 250 254 257
349 350 349 348 354 359 359 4 7 6 6 9 7 10 15 20 26 30 30 37 36 42 36 48 312 228 250 273 266 272 237 255 243 237 238 245 248 240 238 250 254 253 257
347 348 347 350 356 359 355 1 1 5 1 8 7 11 20 25 30 31 36 46 54 42 37 44 38 277 261 276 269 268 223 244 250 236 239 245 241 245 249 258 261 262 261
347 348 345 350 357 0 357 356 359 2 359 3 8 12 16 24 32 36 42 46 50 53 48 46 35 40 7 282 252 278 258 239 187 200 210 227 233 238 243 251 259 265 261
347 347 345 354 360 1 358 356 2 3 2 3 8 16 15 25 27 35 46 46 49 52 52 43 51 52 42 23 339 280 266 284 272 258 234 240 245 237 240 253 253 251 252
346 346 348 358 4 3 360 3 4 4 7 8 11 17 22 27 29 21 33 48 52 54 56 54 47 44 38 20 26 299 322 192 222 290 333 277 200 174 215 208 160 107 81
345 347 352 5 8 5 4 5 9 13 7 14 14 20 27 26 35 37 26 31 48 54 58 57 57 55 52 55 64 81 93 93 88 83 84 77 107 118 132 124 108 106 107
350 349 359 6 10 6 7 7 13 21 7 18 15 21 28 33 38 44 44 44 38 48 49 53 58 56 53 55 61 70 77 78 79 77 76 80 85 88 93 100 103 103 108
353 353 1 7 12 9 9 7 15 19 7 17 24 21 23 38 46 49 53 52 54 51 52 55 51 53 57 55 59 65 72 77 78 77 76 76 76 79 82 84 89 92 94
351 355 2 8 13 10 11 8 15 20 10 19 28 31 25 30 46 51 53 57 56 56 54 54 54 56 59 60 61 64 66 68 72 75 77 78 78 78 78 79 83 86 87
352 357 4 10 11 10 11 13 19 22 12 25 30 36 36 27 33 47 51 52 55 58 54 52 55 55 56 61 67 68 70 71 74 75 76 77 78 77 78 77 78 83 88
351 5 7 9 11 9 11 15 23 23 16 27 32 41 42 41 36 36 45 53 52 53 54 56 54 55 56 57 62 65 68 70 76 84 82 79 79 79 78 78 79 80 81
355 8 10 8 13 11 13 14 24 26 14 27 34 40 47 47 50 51 49 52 54 55 57 55 58 62 62 63 65 68 71 77 81 79 72 69 69 72 75 76 76 77 79